Weather History for Carmi, IL

Change the Weather History Date:

Monday, December 16, 2013

  Actual Average (KEVV) Record (KEVV)
Temperature  
Mean Temperature 39 °F 35 °F  
Max Temperature 45 °F 44 °F 69 °F (1984)
Min Temperature 33 °F 27 °F -6 °F (1989)
Degree Days  
Heating Degree Days 26 30  
Month to date heating degree days 444  
Since 1 July heating degree days 1305  
Cooling Degree Days 0 0  
Month to date cooling degree days 0  
Year to date cooling degree days 1397  
Moisture  
Dew Point 34 °F    
Average Humidity 87    
Maximum Humidity 99    
Minimum Humidity 67    
Precipitation  
Precipitation 0.00 in 0.12 in 2.65 in (1915)
Month to date precipitation 2.05  
Year to date precipitation 43.60  
Snow  
Snow 0.00 in 0.10 in 0.80 in (1996)
Month to date snowfall 1.3  
Since 1 July snowfall 1.6  
Snow Depth -    
Sea Level Pressure  
Sea Level Pressure 30.05 in    
Wind  
Wind Speed 7 mph (SSW)    
Max Wind Speed 9 mph    
Max Gust Speed -    
Visibility 8 miles    
Events      
T = Trace of Precipitation, MM = Missing Value Source: NWS Daily Summary

Daily Weather History Graph

Daily Weather History Graph

Search for Another Location

Airport:

Trip Planner

Search our weather history database for the weather conditions in past years. The results will help you decide how hot, cold, wet, or windy it might be!

Date:

Astronomy

Dec. 16, 2013 Rise Set
Actual Time 7:02 AM CST 4:34 PM CST
Civil Twilight 6:32 AM CST 5:03 PM CST
Nautical Twilight 5:59 AM CST 5:36 PM CST
Astronomical Twilight 5:27 AM CST 6:08 PM CST
Moon 4:23 PM CST (12/16) 6:11 AM CST (12/16)
Length of Visible Light 10h 30m
Length of Day
9h 31m
Full, 100% of the Moon is Illuminated
Dec 16
Full
Dec 17
Full
Dec 25
Last Quarter
Jan 1
New
Jan 7
First Quarter

Hourly Weather History & Observations

Time (CST) Temp. Windchill Dew Point Humidity Pressure Visibility Wind Dir Wind Speed Gust Speed Precip Events Conditions
12:15 AM 33.1 °F 25.5 °F 32.0 °F 96% 30.10 in 7.0 mi South 9.2 mph - N/A   Overcast
12:35 AM 33.3 °F 26.4 °F 32.0 °F 95% 30.10 in 7.0 mi South 8.1 mph - N/A   Overcast
12:55 AM 33.3 °F 25.7 °F 32.0 °F 95% 30.09 in 7.0 mi South 9.2 mph - N/A   Overcast
1:15 AM 33.1 °F 26.9 °F 32.2 °F 96% 30.09 in 5.0 mi SSE 6.9 mph - N/A   Overcast
1:35 AM 33.1 °F 26.9 °F 32.2 °F 96% 30.09 in 5.0 mi SSE 6.9 mph - N/A   Overcast
1:55 AM 33.3 °F 27.9 °F 32.5 °F 97% 30.09 in 5.0 mi South 5.8 mph - N/A   Overcast
2:15 AM 33.4 °F 28.1 °F 32.7 °F 97% 30.08 in 5.0 mi SSE 5.8 mph - N/A   Overcast
2:35 AM 33.4 °F 29.1 °F 32.9 °F 98% 30.08 in 5.0 mi SSE 4.6 mph - N/A   Overcast
2:55 AM 34.0 °F 27.2 °F 33.3 °F 97% 30.07 in 5.0 mi SSE 8.1 mph - N/A   Overcast
3:15 AM 34.3 °F 28.4 °F 33.1 °F 95% 30.06 in 7.0 mi South 6.9 mph - N/A   Mostly Cloudy
3:35 AM 34.2 °F 27.5 °F 33.1 °F 96% 30.05 in 5.0 mi SSE 8.1 mph - N/A   Scattered Clouds
3:55 AM 34.7 °F 28.1 °F 33.1 °F 94% 30.04 in 7.0 mi South 8.1 mph - N/A   Scattered Clouds
4:15 AM 34.7 °F 28.8 °F 33.1 °F 94% 30.04 in 7.0 mi South 6.9 mph - N/A   Scattered Clouds
4:35 AM 34.3 °F 27.7 °F 33.3 °F 96% 30.04 in 5.0 mi South 8.1 mph - N/A   Scattered Clouds
4:55 AM 34.3 °F 30.2 °F 33.3 °F 96% 30.05 in 7.0 mi South 4.6 mph - N/A   Scattered Clouds
5:15 AM 34.7 °F 28.8 °F 33.3 °F 94% 30.04 in 7.0 mi South 6.9 mph - N/A   Clear
5:35 AM 34.3 °F 27.7 °F 33.3 °F 96% 30.05 in 5.0 mi South 8.1 mph - N/A   Clear
5:55 AM 34.3 °F 27.7 °F 33.3 °F 96% 30.05 in 5.0 mi South 8.1 mph - N/A   Scattered Clouds
6:15 AM 34.3 °F 28.4 °F 33.4 °F 97% 30.05 in 5.0 mi South 6.9 mph - N/A   Mostly Cloudy
6:35 AM 34.7 °F 28.8 °F 33.6 °F 96% 30.05 in 5.0 mi South 6.9 mph - N/A   Overcast
6:55 AM 34.7 °F 28.8 °F 33.4 °F 95% 30.05 in 7.0 mi South 6.9 mph - N/A   Overcast
7:15 AM 34.7 °F 28.1 °F 33.3 °F 94% 30.05 in 5.0 mi South 8.1 mph - N/A   Overcast
7:35 AM 34.3 °F 28.4 °F 32.9 °F 94% 30.05 in 5.0 mi South 6.9 mph - N/A   Scattered Clouds
7:55 AM 34.0 °F 28.0 °F 32.9 °F 96% 30.05 in 5.0 mi South 6.9 mph - N/A   Scattered Clouds
8:15 AM 34.5 °F 28.6 °F 33.1 °F 94% 30.06 in 5.0 mi South 6.9 mph - N/A   Scattered Clouds
8:35 AM 36.5 °F 31.8 °F 34.0 °F 91% 30.06 in 5.0 mi South 5.8 mph - N/A   Mostly Cloudy
8:55 AM 38.1 °F 33.7 °F 34.2 °F 86% 30.06 in 7.0 mi South 5.8 mph - N/A   Scattered Clouds
9:15 AM 39.2 °F 33.0 °F 34.0 °F 82% 30.07 in 7.0 mi SSW 9.2 mph - N/A   Scattered Clouds
9:35 AM 38.7 °F 32.9 °F 34.0 °F 83% 30.08 in 7.0 mi SSW 8.1 mph - N/A   Clear
9:55 AM 39.9 °F 33.9 °F 34.2 °F 80% 30.07 in 10.0 mi SSW 9.2 mph - N/A   Clear
10:15 AM 40.3 °F 34.9 °F 34.2 °F 79% 30.07 in 10.0 mi SW 8.1 mph - N/A   Clear
10:35 AM 41.2 °F 36.0 °F 34.3 °F 77% 30.07 in 10.0 mi SW 8.1 mph - N/A   Clear
10:55 AM 41.7 °F 36.7 °F 34.3 °F 75% 30.07 in 10.0 mi SW 8.1 mph - N/A   Clear
11:15 AM 41.9 °F 36.3 °F 34.3 °F 75% 30.06 in 10.0 mi SW 9.2 mph - N/A   Clear
11:35 AM 42.6 °F 37.8 °F 34.5 °F 73% 30.05 in 10.0 mi SW 8.1 mph - N/A   Clear
11:55 AM 43.0 °F 38.2 °F 34.7 °F 73% 30.04 in 10.0 mi SW 8.1 mph - N/A   Clear
12:15 PM 43.2 °F 38.4 °F 34.9 °F 73% 30.04 in 10.0 mi SW 8.1 mph - N/A   Clear
12:35 PM 44.1 °F 40.1 °F 34.9 °F 70% 30.03 in 10.0 mi SW 6.9 mph - N/A   Clear
12:55 PM 44.6 °F 39.7 °F 34.9 °F 69% 30.03 in 10.0 mi SW 9.2 mph - N/A   Clear
1:15 PM 44.8 °F 39.9 °F 35.1 °F 69% 30.03 in 10.0 mi SW 9.2 mph - N/A   Clear
1:35 PM 45.1 °F 40.8 °F 35.6 °F 69% 30.03 in 10.0 mi SW 8.1 mph - N/A   Clear
1:55 PM 45.5 °F 41.3 °F 35.2 °F 67% 30.02 in 10.0 mi WSW 8.1 mph - N/A   Clear
2:15 PM 45.5 °F 41.3 °F 35.1 °F 67% 30.03 in 10.0 mi WSW 8.1 mph - N/A   Clear
2:35 PM 45.5 °F 41.8 °F 35.2 °F 67% 30.03 in 10.0 mi WSW 6.9 mph - N/A   Clear
2:55 PM 45.1 °F 41.4 °F 35.6 °F 69% 30.03 in 10.0 mi WSW 6.9 mph - N/A   Clear
3:15 PM 45.1 °F 42.8 °F 35.6 °F 69% 30.03 in 10.0 mi WSW 4.6 mph - N/A   Clear
3:35 PM 45.1 °F 42.8 °F 35.8 °F 70% 30.04 in 10.0 mi WSW 4.6 mph - N/A   Clear
3:55 PM 44.6 °F 42.2 °F 35.4 °F 70% 30.04 in 10.0 mi SW 4.6 mph - N/A   Clear
4:15 PM 43.9 °F 41.3 °F 35.1 °F 71% 30.04 in 10.0 mi SW 4.6 mph - N/A   Clear
4:35 PM 41.5 °F - 35.4 °F 79% 30.05 in 10.0 mi Calm Calm - N/A   Clear
4:55 PM 39.4 °F 36.1 °F 35.2 °F 85% 30.05 in 10.0 mi SSE 4.6 mph - N/A   Clear
5:15 PM 37.6 °F - 34.0 °F 87% 30.05 in 10.0 mi Calm Calm - N/A   Clear
5:35 PM 36.0 °F 32.1 °F 33.1 °F 89% 30.05 in 10.0 mi SSE 4.6 mph - N/A   Clear
5:55 PM 36.5 °F 31.8 °F 34.2 °F 91% 30.05 in 10.0 mi South 5.8 mph - N/A   Clear
6:15 PM 35.6 °F 31.7 °F 33.8 °F 93% 30.05 in 10.0 mi South 4.6 mph - N/A   Clear
6:35 PM 36.0 °F 32.1 °F 33.6 °F 91% 30.05 in 10.0 mi SW 4.6 mph - N/A   Clear
6:55 PM 37.8 °F 34.2 °F 34.3 °F 87% 30.05 in 10.0 mi SSW 4.6 mph - N/A   Clear
7:15 PM 36.9 °F 33.1 °F 34.5 °F 91% 30.05 in 10.0 mi SSW 4.6 mph - N/A   Clear
7:35 PM 34.9 °F 32.0 °F 32.9 °F 92% 30.05 in 10.0 mi South 3.5 mph - N/A   Clear
7:55 PM 34.9 °F 30.8 °F 33.6 °F 95% 30.05 in 10.0 mi SSW 4.6 mph - N/A   Clear
8:15 PM 34.9 °F - 33.3 °F 94% 30.05 in 10.0 mi Calm Calm - N/A   Clear
8:35 PM 34.7 °F - 32.9 °F 93% 30.04 in 10.0 mi Calm Calm - N/A   Clear
8:55 PM 34.0 °F 28.0 °F 33.4 °F 98% 30.04 in 10.0 mi South 6.9 mph - N/A   Clear
9:15 PM 35.4 °F 29.7 °F 34.3 °F 96% 30.04 in 10.0 mi South 6.9 mph - N/A   Clear
9:35 PM 34.9 °F 29.9 °F 34.0 °F 97% 30.03 in 10.0 mi South 5.8 mph - N/A   Clear
9:55 PM 34.3 °F - 33.6 °F 97% 30.04 in 10.0 mi Calm Calm - N/A   Clear
10:15 PM 34.7 °F - 34.2 °F 98% 30.05 in 10.0 mi Calm Calm - N/A   Clear
10:40 PM 34.2 °F 29.0 °F 33.8 °F 99% 30.06 in 10.0 mi NW 5.8 mph - N/A   Clear
10:55 PM 36.7 °F 32.0 °F 36.3 °F 99% 30.06 in 10.0 mi WNW 5.8 mph - N/A   Clear
11:15 PM 37.4 °F 30.8 °F 35.8 °F 94% 30.06 in 10.0 mi WNW 9.2 mph - N/A   Clear
11:35 PM 37.0 °F 31.6 °F 35.1 °F 93% 30.07 in 10.0 mi NW 6.9 mph - N/A   Clear
11:55 PM 36.5 °F 31.8 °F 34.3 °F 92% 30.08 in 10.0 mi NW 5.8 mph - N/A   Clear